Regional Weather Roundup
Issued by NWS

Home | Current Version | Previous Version | Text Only | Print | Product List | Glossary Off
Versions: 1 2 3 4 5 6 7 8 9 10 11 12 13 14 15 16 17 18 19 20 21 22 23 24 25 26 27 28 29 30 31 32 33 34 35 36 37 38 39 40 41 42 43 44 45 46 47 48 49 50

000
ASUS43 KMPX 200310
RWRMN
WEATHER ROUNDUP FOR MINNESOTA
NATIONAL WEATHER SERVICE TWIN CITIES/CHANHASSEN MN
900 PM CST FRI DEC 19 2014


NOTE: "FAIR" INDICATES FEW OR NO CLOUDS BELOW 12,000 FEET WITH NO
SIGNIFICANT WEATHER AND/OR OBSTRUCTIONS TO VISIBILITY. N/A MEANS
CURRENT SKY AND/OR WEATHER CONDITIONS ARE NOT AVAILABLE.

MNZ060>063-068>070-200400-
   Twin Cities Metro

CITY           SKY/WX    TMP DP  RH WIND       PRES   REMARKS
TWIN CITIES    CLOUDY    29  24  82 SE7       30.18F HAZE    WCI  22
ST PAUL        CLOUDY    29  25  85 SE7       30.20F WCI  22
CRYSTAL        CLOUDY    30  25  81 SE10      30.16F WCI  21
BLAINE         CLOUDY    30  27  86 SE7       30.17F WCI  23
LAKEVILLE      CLOUDY    28  25  86 SE5       30.18S FOG     WCI  23
EDEN PRAIRIE   CLOUDY    30  25  81 SE9       30.16F HAZE    WCI  22
SOUTH ST PAUL  CLOUDY    30  25  81 SE6       30.19S WCI  24
LAKE ELMO      CLOUDY    30  27  86 SE5       30.19F WCI  25
$$
MNZ001>005-007-008-013>017-022>024-027-028-200400-
   Northwest Minnesota

CITY           SKY/WX    TMP DP  RH WIND       PRES   REMARKS
BEMIDJI        LGT SNOW  25  24  96 SE7       30.03F WCI  17
HALLOCK        CLOUDY    28  27  93 CALM      30.01S FOG
ROSEAU         CLOUDY    27  21  80 SE8       30.03F HAZE    WCI  18
WARROAD        CLOUDY    25  21  86 SE8       30.05S FOG     WCI  16
THIEF RVR FALL CLOUDY    27  27 100 SE9       30.02S WCI  17
CROOKSTON      CLOUDY    30  28  93 S12       30.02F FOG     WCI  21
FOSSTON        LGT SNOW  25  25 100 S10       30.02S WCI  15
DETROIT LAKES  CLOUDY    30  30 100 S10       30.03S FOG     WCI  21
MOORHEAD       CLOUDY    30  30 100 S14       30.03S FOG     WCI  20
PARK RAPIDS    CLOUDY    27  25  92 SE9       30.04S FOG     WCI  18
MAHNOMEN       CLOUDY    28  27  96 S9        30.02S FOG     WCI  20
$$
MNZ006-009>011-018-025>026-200400-
   North Central Minnesota

CITY           SKY/WX    TMP DP  RH WIND       PRES   REMARKS
BAUDETTE       CLOUDY    25  22  88 S6        30.05F WCI  18
FLAG ISLAND    LGT SNOW  25  23  93 S15       30.05S WCI  12
INTL FALLS     CLOUDY    24  21  88 SE6       30.09F WCI  17
WASKISH        LGT SNOW  25  23  93 CALM      30.06S
BIG FORK       LGT SNOW  25  21  86 S9        30.08F WCI  15
LONGVILLE      LGT SNOW  25  25 100 SE6       30.07F WCI  18
GRAND RAPIDS   CLOUDY    23  21  93 SE13      30.08F WCI  11
CRANE LAKE     LGT SNOW  23  21  93 CALM      30.14F
ORR            LGT SNOW  23  19  86 SE7       30.08F WCI  15
COOK           LGT SNOW  25  21  86 SE6       30.11F WCI  18
WALKER         LGT SNOW  25  23  93 SE5       30.05S WCI  19
$$
MNZ012-019>021-037-200400-
   Northeast Minnesota

CITY           SKY/WX    TMP DP  RH WIND       PRES   REMARKS
DULUTH         LGT SNOW  24  22  91 SE7       30.14F FOG     WCI  16
ELY            FLURRIES  23  21  93 SE7       30.13F WCI  15
HIBBING        CLOUDY    25  21  85 SE7       30.11F FOG     WCI  17
EVELETH        LGT SNOW  25  23  93 S7        30.13F WCI  17
DULUTH HARBOR  CLOUDY    28  25  86 CALM      30.21S
TWO HARBORS    CLOUDY    28  23  80 S3        30.16F
SILVER BAY     CLOUDY    27  25  93 CALM      30.16F
GRAND MARAIS     N/A     29  23  78 VRB6      30.22F WCI  23
G MARAIS ARPRT FOG       21  18  86 S3        30.15S VSB 3/4
$$
MNZ029>031-032-039>041-046>048-054>057-064-200400-
   West Central Minnesota

CITY           SKY/WX    TMP DP  RH WIND       PRES   REMARKS
FERGUS FALLS   CLOUDY    30  28  93 S16       30.07F FOG     WCI  19
WHEATON        MOCLDY    28  27  93 SE7       30.07R FOG     WCI  21
MORRIS         MOCLDY    30  28  93 S14       30.05S FOG     WCI  20
ALEXANDRIA     CLOUDY    30  28  92 S12       30.06F WCI  20
ELBOW LAKE     CLOUDY    30  29  97 S17       30.04S FOG     WCI  18
WADENA         CLOUDY    28  28 100 S7        30.05S FOG     WCI  21
GLENWOOD       CLOUDY    30  28  93 S14       30.07S FOG     WCI  20
APPLETON       CLOUDY    32  28  86 S5        30.06F FOG     WCI  27
BENSON         CLOUDY    30  28  93 S10       30.07F FOG     WCI  21
ORTONVILLE     CLOUDY    30  27  86 S8        30.04F FOG     WCI  23
MADISON        MOCLDY    34  32  93 S7        30.06S FOG     WCI  28
WILLMAR        CLOUDY    34  28  80 CALM      30.11S
$$
MNZ033>034-036-042>043-049>051-058-059-200400-
   Central Minnesota

CITY           SKY/WX    TMP DP  RH WIND       PRES   REMARKS
ST CLOUD       CLOUDY    31  26  82 SE12      30.12F HAZE    WCI  22
SAUK CENTRE    CLOUDY    30  28  94 SE9       30.08F FOG     WCI  21
PAYNESVILLE    CLOUDY    28  28  97 E6        30.11R FOG     WCI  22
AITKIN         CLOUDY    28  23  80 S9        30.10F HAZE    WCI  20
PINE RIVER     LGT SNOW  25  25 100 SE9       30.10F WCI  15
BRAINERD       CLOUDY    26  25  96 S8        30.10F FOG     WCI  18
STAPLES        CLOUDY    27  27 100 SE6       30.07F FOG     WCI  20
LONG PRAIRIE   CLOUDY    30  28  93 SE8       30.08S FOG     WCI  23
LITTLE FALLS   CLOUDY    28  27  93 SE7       30.11S FOG     WCI  21
LITCHFIELD     CLOUDY    32  30  93 S5        30.12S FOG     WCI  27
BUFFALO        CLOUDY    30  27  89 SE5       30.15F FOG     WCI  25
MAPLE LAKE     CLOUDY    31  29  94 SE6       30.14F FOG     WCI  25
$$
MNZ037-044-045-052-053-200400-
   East Central Minnesota

CITY           SKY/WX    TMP DP  RH WIND       PRES   REMARKS
PRINCETON      CLOUDY    28  27  93 SE7       30.15S FOG     WCI  21
MORA           CLOUDY    27  23  86 SE6       30.17S WCI  20
CAMBRIDGE      MOCLDY    28  21  74 SE6       30.15S WCI  22
RUSH CITY      CLOUDY    27  24  86 SE7       30.18S WCI  20
MOOSE LAKE     CLOUDY    27  23  86 CALM      30.14F
HINCKLEY       CLOUDY    28  25  86 CALM      30.16F
CLOQUET        CLOUDY    25  21  86 SE5       30.15S WCI  19
MCGREGOR       CLOUDY    27  25  93 SE8       30.13F WCI  18
$$
MNZ071>073-080-081-089-090-097-098-200400-
   Southwest Minnesota

CITY           SKY/WX    TMP DP  RH WIND       PRES   REMARKS
MONTEVIDEO     CLOUDY    30  30 100 SW8       30.08F FOG     WCI  23
GRANITE FALLS  CLOUDY    31  28  90 S8        30.11S WCI  24
CANBY          CLOUDY    31  30  93 S6        30.06F WCI  26
MARSHALL       CLOUDY    30  27  86 SW15      30.08S WCI  19
REDWOOD FALLS  CLOUDY    33  28  81 S10       30.11F WCI  25
OLIVIA         CLOUDY    32  30  93 S6        30.11S WCI  26
PIPESTONE      CLOUDY    30  28  93 S5        30.05F FOG     WCI  25
WINDOM         CLOUDY    32  28  86 S6        30.10S FOG     WCI  26
WORTHINGTON    CLOUDY    30  27  86 S8        30.10R WCI  23
JACKSON        CLOUDY    32  28  86 S10       30.11S WCI  24
TRACY          CLOUDY    32  29  90 S9G18     30.09S WCI  24
SLAYTON        CLOUDY    29  29  99 S5        30.08F FOG     WCI  24
$$
MNZ065>067-074>077-082>085-091>093-200400-
   South Central Minnesota

CITY           SKY/WX    TMP DP  RH WIND       PRES   REMARKS
MANKATO        CLOUDY    30  27  86 SE8       30.15S WCI  23
NEW ULM        CLOUDY    30  30 100 SE7       30.13S FOG     WCI  23
ST JAMES       CLOUDY    34  30  86 S10       30.14S WCI  26
FAIRMONT       CLOUDY    30  25  80 S10       30.13S WCI  21
GLENCOE        CLOUDY    32  31  95 SE7       30.14S FOG     WCI  25
FARIBAULT      CLOUDY    30  27  86 S6        30.18R WCI  24
OWATONNA       CLOUDY    28  25  86 S8        30.17R WCI  20
WASECA         CLOUDY    30  28  93 S10       30.18R FOG     WCI  21
ALBERT LEA     CLOUDY    28  28 100 S10       30.16S FOG     WCI  19
$$
MNZ078>079-086>088-094>096-200400-
   Southeast Minnesota

CITY           SKY/WX    TMP DP  RH WIND       PRES   REMARKS
ROCHESTER      CLOUDY    27  22  81 S12       30.18S WCI  17
RED WING       CLOUDY    30  23  74 SE6       30.20S WCI  24
STANTON        CLOUDY    31  26  82 S3        30.18R
DODGE CENTER   CLOUDY    28  27  93 S7        30.17R FOG     WCI  21
WINONA         CLOUDY    30  23  74 SE3       30.23S
AUSTIN         CLOUDY    28  25  86 S6        30.17S WCI  22
PRESTON        CLOUDY    26  22  82 S8        30.19S WCI  18
$$
ABBREVIATIONS USED IN REMARKS
   TC - TEMPERATURES IN CELSIUS
  WCI - WIND CHILL INDEX
   HX - HEAT INDEX
  VSB - VISIBILITY
$$



USA.gov is the U.S. government's official web portal to all federal, state and local government web resources and services.